TimeCDT,TemperatureF,Dew PointF,Humidity,Sea Level PressureIn,VisibilityMPH,Wind Direction,Wind SpeedMPH,Gust SpeedMPH,PrecipitationIn,Events,Conditions,WindDirDegrees,DateUTC
12:53 AM,25.0,10.9,55,30.14,10.0,SSE,3.5,-,N/A,,Clear,160,2013-03-21 05:53:00
1:53 AM,26.1,10.0,51,30.12,10.0,East,4.6,-,N/A,,Clear,100,2013-03-21 06:53:00
2:53 AM,26.1,10.9,53,30.11,10.0,East,4.6,-,N/A,,Clear,80,2013-03-21 07:53:00
3:53 AM,27.0,12.0,53,30.08,10.0,East,5.8,-,N/A,,Clear,90,2013-03-21 08:53:00
4:53 AM,26.1,10.9,53,30.07,10.0,East,6.9,-,N/A,,Clear,90,2013-03-21 09:53:00
5:53 AM,25.0,10.9,55,30.07,10.0,ESE,5.8,-,N/A,,Clear,110,2013-03-21 10:53:00
6:53 AM,26.1,10.9,53,30.09,10.0,ESE,10.4,-,N/A,,Overcast,120,2013-03-21 11:53:00
7:53 AM,26.1,10.9,53,30.09,10.0,East,9.2,-,N/A,,Overcast,100,2013-03-21 12:53:00
8:53 AM,27.0,10.9,51,30.07,10.0,East,11.5,-,N/A,,Overcast,90,2013-03-21 13:53:00
9:53 AM,27.0,10.9,51,30.03,10.0,East,15.0,-,N/A,,Overcast,80,2013-03-21 14:53:00
10:53 AM,27.0,12.9,56,30.03,4.0,ESE,15.0,-,0.00,Snow,Light Snow,110,2013-03-21 15:53:00
11:00 AM,26.6,14.0,59,30.00,2.0,ESE,15.0,19.6,0.00,Snow,Light Snow,120,2013-03-21 16:00:00
11:12 AM,26.6,17.6,69,30.01,1.8,ESE,9.2,-,0.00,Snow,Light Snow,110,2013-03-21 16:12:00
11:33 AM,24.8,19.4,80,30.01,1.0,ESE,12.7,-,0.00,Snow,Light Snow,120,2013-03-21 16:33:00
11:40 AM,24.8,19.4,80,30.01,0.8,ESE,10.4,-,0.00,Snow,Light Snow,110,2013-03-21 16:40:00
11:53 AM,25.0,19.9,81,30.04,0.8,ESE,9.2,-,0.00,Snow,Light Snow,110,2013-03-21 16:53:00
12:01 PM,24.8,19.4,80,30.00,1.0,East,11.5,-,0.00,Snow,Light Snow,100,2013-03-21 17:01:00
12:12 PM,24.8,19.4,80,29.99,1.0,ESE,13.8,-,0.00,Snow,Light Snow,110,2013-03-21 17:12:00
12:35 PM,24.8,21.2,86,29.99,0.8,East,9.2,-,0.01,Snow,Light Snow,100,2013-03-21 17:35:00
12:53 PM,25.0,21.0,85,30.01,0.8,East,10.4,-,0.01,Snow,Light Snow,100,2013-03-21 17:53:00
1:10 PM,26.6,21.2,80,29.97,1.0,East,8.1,-,0.00,Snow,Light Snow,90,2013-03-21 18:10:00
1:26 PM,26.6,21.2,80,29.97,2.0,ESE,9.2,17.3,0.00,Snow,Light Snow,110,2013-03-21 18:26:00
1:33 PM,26.6,21.2,80,29.96,3.0,East,9.2,-,0.00,Snow,Light Snow,100,2013-03-21 18:33:00
1:53 PM,26.1,21.9,84,29.99,5.0,ESE,10.4,-,0.00,Snow,Light Snow,110,2013-03-21 18:53:00
2:53 PM,27.0,21.9,81,29.96,10.0,East,15.0,20.7,0.00,,Overcast,100,2013-03-21 19:53:00
3:30 PM,26.6,21.2,80,29.92,3.0,ESE,11.5,-,0.00,Snow,Light Snow,120,2013-03-21 20:30:00
3:45 PM,26.6,21.2,80,29.91,4.0,ESE,11.5,-,0.00,Snow,Light Snow,120,2013-03-21 20:45:00
3:53 PM,27.0,21.9,81,29.94,5.0,ESE,13.8,19.6,0.00,Snow,Light Snow,110,2013-03-21 20:53:00
4:01 PM,26.6,21.2,80,29.91,6.0,ESE,9.2,19.6,0.00,Snow,Light Snow,110,2013-03-21 21:01:00
4:09 PM,26.6,23.0,86,29.91,8.0,East,12.7,-,0.00,,Overcast,100,2013-03-21 21:09:00
4:40 PM,26.6,21.2,80,29.90,10.0,ESE,9.2,-,0.00,,Overcast,120,2013-03-21 21:40:00
4:53 PM,27.0,23.0,85,29.94,10.0,ESE,8.1,-,0.00,,Overcast,110,2013-03-21 21:53:00
5:53 PM,27.0,23.0,85,29.94,10.0,ESE,8.1,16.1,N/A,,Overcast,110,2013-03-21 22:53:00
6:53 PM,27.0,24.1,89,29.94,3.0,East,8.1,-,N/A,,Overcast,90,2013-03-21 23:53:00
7:20 PM,26.6,24.8,93,29.92,4.0,East,6.9,-,N/A,,Overcast,100,2013-03-22 00:20:00
7:53 PM,27.0,25.0,92,29.95,4.0,East,6.9,-,N/A,,Overcast,90,2013-03-22 00:53:00
8:53 PM,28.0,25.0,88,29.95,3.0,East,10.4,-,N/A,,Overcast,80,2013-03-22 01:53:00
9:53 PM,28.0,26.1,92,29.96,5.0,East,8.1,-,N/A,,Overcast,80,2013-03-22 02:53:00
10:53 PM,28.0,26.1,92,29.96,2.5,East,9.2,-,N/A,,Overcast,80,2013-03-22 03:53:00
11:29 PM,28.4,26.6,93,29.92,2.5,East,8.1,-,N/A,,Overcast,80,2013-03-22 04:29:00
11:53 PM,28.0,26.1,92,29.96,3.0,East,6.9,-,N/A,,Overcast,80,2013-03-22 04:53:00